星链-2519 (STARLINK-2519 )

导读 | 豆包AI

STARLINK-2519是美国星链计划中的低轨通信卫星,于2021年4月29日发射升空,隶属于SpaceX打造的Starlink星座,承担提供全球覆盖高速卫星互联网服务任务。该卫星运行在近地轨道,采用SpaceX成熟技术方案,目前已进入星座组网序列,支撑全球偏远地区、移动场景的网络连接服务。

Basic Information
目录编号:
48305
目录名称:
STARLINK-2519
国际标识:
2021-036AF
轨道中心:
EARTH
卫星名称:
星链-2519
卫星全名:
星链-2519 (STARLINK-2519 )
卫星状态:
在轨 (已飞行1780 天)
发射日期:
2021-04-29 UTC
国别 :
美国 (US)
星等 :
--
Orbit Information
数据来源 国际轨道数据 AOE轨道数据
星历时间 2026-03-14T14:41:29+0800
9小时前
查看轨道信息
2026-03-10T22:00:00+0800
4天前
查看轨道信息
半长轴 6925.362km 6925.372km
偏心率 0.000132 0.000122
轨道倾角 53.055° 53.055°
近地点辐角 115.454° 74.720°
升交点赤经 71.597° 88.188°
平近点角 244.658° 33.638°
近地点 546.31km 546.39km
远地点 548.14km 548.08km
周期 95.592分钟 95.593分钟
每日圈数 15.063958 15.063926
Detailed Information
固有亮度:
5
最大亮度:
2.5
卫星平台:
Starlink V1.0
覆盖范围:
全球
运营商:
太空探索技术公司
运营商所在国:
美国
制造商(研发单位):
太空探索技术公司
制造商所在国:
美国
使用方式:
暂无
Satellite Introduction
星链(Starlink)计划是由太空探索技术公司(SpaceX)提出的一个巨型低轨卫星互联网星座项目,计划在2019年至2024年间在太空搭建由约1.2万颗卫星组成的“星链”网络,其中1584颗将部署在地球上空550千米处的近地轨道,并从2020年开始工作。该卫星仍在工作。
2D Orbit Map
3D Orbit Map
Orbit Altitude Analysis Chart
Orbit Inclination Analysis Chart
Orbit Comprehensive Analysis Chart
View Comprehensive Chart